Weather History for Clinton-Sherman, OK

Change the Weather History Date:

Wednesday, October 3, 2012

  Actual Average Record
Temperature  
Mean Temperature 66 °F -  
Max Temperature 82 °F 75 °F 100 °F (2000)
Min Temperature 50 °F 53 °F 42 °F (1999)
Growing Degree Days 16 (Base 50)    
Moisture  
Dew Point 47 °F    
Average Humidity 53    
Maximum Humidity 74    
Minimum Humidity 30    
Precipitation  
Precipitation 0.00 in - - ()
Sea Level Pressure  
Sea Level Pressure 29.91 in    
Wind  
Wind Speed 12 mph (SSE)    
Max Wind Speed 21 mph    
Max Gust Speed 31 mph    
Visibility 10 miles    
Events      
Averages and records for this station are not official NWS values.
T = Trace of Precipitation, MM = Missing Value Source: NWS Daily Summary

Daily Weather History Graph

Daily Weather History Graph

Search for Another Location

Airport:

Trip Planner

Search our weather history database for the weather conditions in past years. The results will help you decide how hot, cold, wet, or windy it might be!

Date:

Astronomy

Oct. 03, 2012 Rise Set
Actual Time 7:33 AM CDT 7:17 PM CDT
Civil Twilight 7:08 AM CDT 7:42 PM CDT
Nautical Twilight 6:38 AM CDT 8:11 PM CDT
Astronomical Twilight 6:09 AM CDT 8:41 PM CDT
Moon 9:19 PM CDT (10/3) 10:49 AM CDT (10/3)
Length of Visible Light 12h 34m
Length of Day
11h 43m
Waning Gibbous, 88% of the Moon is Illuminated
Oct 3
Waning Gibbous
Oct 8
Last Quarter
Oct 15
New
Oct 21
First Quarter
Oct 29
Full

Hourly Weather History & Observations

Time (CDT) Temp. Dew Point Humidity Pressure Visibility Wind Dir Wind Speed Gust Speed Precip Events Conditions
12:53 AM 52.0 °F 42.1 °F 69% 29.93 in 10.0 mi SE 9.2 mph - N/A   Clear
1:53 AM 54.0 °F 41.0 °F 62% 29.93 in 10.0 mi SSE 6.9 mph - N/A   Clear
2:53 AM 54.0 °F 41.0 °F 62% 29.93 in 10.0 mi SE 9.2 mph - N/A   Clear
3:53 AM 50.0 °F 42.1 °F 74% 29.93 in 10.0 mi SE 6.9 mph - N/A   Clear
4:53 AM 51.1 °F 42.1 °F 71% 29.92 in 10.0 mi SE 8.1 mph - N/A   Clear
5:53 AM 51.1 °F 42.1 °F 71% 29.93 in 10.0 mi SE 9.2 mph - N/A   Clear
6:53 AM 52.0 °F 43.0 °F 71% 29.93 in 10.0 mi SSE 9.2 mph - N/A   Clear
7:53 AM 52.0 °F 44.1 °F 74% 29.94 in 10.0 mi SE 8.1 mph - N/A   Clear
8:53 AM 60.1 °F 46.0 °F 60% 29.94 in 10.0 mi SSE 9.2 mph - N/A   Clear
9:53 AM 64.9 °F 46.9 °F 52% 29.95 in 10.0 mi South 9.2 mph 18.4 mph N/A   Clear
10:53 AM 69.1 °F 48.9 °F 49% 29.95 in 10.0 mi South 15.0 mph 21.9 mph N/A   Clear
11:53 AM 75.0 °F 46.0 °F 36% 29.93 in 10.0 mi South 18.4 mph 29.9 mph N/A   Clear
12:53 PM 78.1 °F 46.9 °F 33% 29.91 in 10.0 mi South 18.4 mph 29.9 mph N/A   Clear
1:53 PM 80.1 °F 46.9 °F 31% 29.88 in 10.0 mi South 18.4 mph 25.3 mph N/A   Clear
2:53 PM 81.0 °F 46.9 °F 30% 29.86 in 10.0 mi SSE 19.6 mph 29.9 mph N/A   Clear
3:53 PM 81.0 °F 48.0 °F 31% 29.86 in 10.0 mi South 18.4 mph 26.5 mph N/A   Clear
4:53 PM 81.0 °F 48.9 °F 33% 29.85 in 10.0 mi South 17.3 mph 31.1 mph N/A   Clear
5:53 PM 80.1 °F 48.9 °F 34% 29.86 in 10.0 mi South 19.6 mph 28.8 mph N/A   Clear
6:53 PM 75.9 °F 51.1 °F 42% 29.86 in 10.0 mi SSE 16.1 mph - N/A   Clear
7:53 PM 72.0 °F 51.1 °F 48% 29.88 in 10.0 mi SSE 17.3 mph - N/A   Clear
8:53 PM 69.1 °F 53.1 °F 57% 29.89 in 10.0 mi SE 18.4 mph - N/A   Clear
9:53 PM 68.0 °F 53.1 °F 59% 29.92 in 10.0 mi SE 17.3 mph - N/A   Clear
10:53 PM 66.9 °F 53.1 °F 61% 29.94 in 10.0 mi SE 18.4 mph - N/A   Clear
11:53 PM 66.9 °F 52.0 °F 59% 29.92 in 10.0 mi SSE 20.7 mph - N/A   Clear